STARLINK-31916, 59795

Orbit data source: Space-Track

STARLINK-31916, 59795 is a payload satellite owned by SpaceX/Seattle (US) in LEO that was launched on Sat, 18 May 2024 UTC via an FALCON 9 launch vehicle from the Air Force Eastern Test Range (AFETR). Payload-class satellites include a variety of spacecraft equipped with specific instruments for various scientific and technological missions. These include communications satellites like Starlink; space stations such as the ISS; scientific satellites like the Hubble; Earth observation satellites from companies like Planet Labs, Umbra, and HawkEye 360; GPS; miniature CubeSats for education and research; and military/defense satellites.

Loading next visibility...
Identifier
59795, 2024-093P
Orbit
LEO
Last TLE update
14 hours ago
Origin
Manufacturer
SpaceX/Seattle
Mission
Operational spacecraft
Bus & Motor
STARLINK V2M, Unknown motor
Mass
730 kg wet, ~700 kg dry
Launch date (UTC)
2024-05-18 (1 year ago)
Launch vehicle
FALCON 9
Launch site
Air Force Eastern Test Range (AFETR)
Object type
Payload
Rocket body
Debris
Shape & HBR
Unknown
Radar Cross Section
Large (>1 m²)

Expand to show TLE details & history

TLE from 14 hours ago
0 STARLINK-31916
1 59795U 24093P   25191.55242878  .00000209  00000-0  17099-4 0  9993
2 59795  43.0023 136.3602 0001084 260.1502  99.9228 15.27577873 65663
Epoch: 2025-07-10T13:15Z
TLE epoch observation values (Epoch: 2025-07-10T13:15:29.846Z)
Latitude
0.00002°
Longitude
8.7688°
Altitude
482.959 km
Speed
7.626 km/s
True Right ascension
09h 05m 26s
True Declination
0° 00' 00"
Sunlit
Object was in daylight at epoch
Visualization orbit readout
Latitude
-41.479°
Longitude
-103.9307°
Altitude
494.974 km
Speed
7.618 km/s
Apparent Right ascension
02h 22m 08s
Apparent Declination
-41° 11' 25"
Sunlit
Object is in daylight
Visualization observer readout
Local Sidereal Time
15:12:11
Azimuth
101.68° ESE
Elevation
-80.418°
Doppler factor
1
Orbital elements
Apogee altitude
485.744 km
Perigee altitude
484.256 km
Semi-major axis
6,863.137 km
Eccentricity
0.00011
Inclination
43.0023°
RAAN
136.3602°
Arg. of periapsis
260.1502°
True anomaly
Unknown
Mean anomaly
99.9228°
Eccentric anomaly
Unknown
Mean motion
3.81733 °/min
Orbital period
94.31 mins
BSTAR
0.000017099
Loading maneuver chart data...
Loading SW <> Apogee altitude chart data...
Loading historical data...
Loading historical data...
Loading historical data...
Loading historical data...
Loading historical data...
Loading historical data...
Loading historical data...

STARLINK-31916 Visibility forecast

Observer location: undefined°, undefined°

Span
Click to sort rows by Start time (UTC) header in descending order
Start Az.
Max El. time (UTC)
Max El. Az.
Max El.
End time (UTC)
End Az.
7 mins2025-07-11 03:46:32.704Z289.33° WNW2025-07-11 03:50:32.704Z54.33° ENE41.654°2025-07-11 03:53:32.704Z96.844° ESE
4 mins2025-07-11 05:27:32.704Z255.114° W2025-07-11 05:28:32.704Z227.478° WSW29.377°2025-07-11 05:31:32.704Z149.515° SSE
6 mins2025-07-12 00:01:32.704Z238.794° WSW2025-07-12 00:04:32.704Z113.9° SE41.845°2025-07-12 00:07:32.704Z74.734° E
5 mins2025-07-12 01:41:32.704Z290.346° WNW2025-07-12 01:43:32.704Z16.543° NNE37.98°2025-07-12 01:46:32.704Z72.142° E
|